Date_and_time,latitude,longitude,wind_speed,RelWindDirFrom,WindDirFrom,air_pressure,air_temperature,relative_humidity,Temp,platform_speed_wrt_ground,air_pressure_at_mean_sea_level,platform_orientation
2019-02-18 00:00,50.6304416666667,-96.9807666666667,7.7,11.3,328,1001.87,-14.1,62,0.39,0.0,1031.59,270.0
2019-02-18 00:00,50.6304416666667,-96.9807666666667,8.0,8.1,325,1001.92,-14.2,63,0.39,0.0,1031.65,360.0
2019-02-18 00:10,50.6304383333333,-96.9807666666667,7.0,10.7,323,1001.97,-14.3,63,0.39,0.0,1031.71,360.0
2019-02-18 00:20,50.6304483333333,-96.980755,7.0,10.3,323,1002.04,-14.6,63,0.40,0.0,1031.79,360.0
2019-02-18 00:30,50.6304416666667,-96.9807583333333,6.9,9.6,326,1002.15,-14.8,64,0.40,0.0,1031.92,360.0
2019-02-18 00:40,50.630445,-96.98076,8.1,12.3,330,1002.26,-15.0,64,0.40,0.0,1032.06,360.0
2019-02-18 00:50,50.630445,-96.98076,8.4,12.1,332,1002.42,-15.0,64,0.40,0.0,1032.24,360.0
2019-02-18 01:00,50.6304433333333,-96.9807583333333,9.5,13.8,337,1002.53,-15.0,64,0.40,0.0,1032.37,90.0
2019-02-18 01:10,50.6304433333333,-96.9807616666667,9.8,13.5,336,1002.58,-15.0,65,0.40,0.0,1032.41,90.0
2019-02-18 01:20,50.6304433333333,-96.9807616666667,8.8,13.7,330,1002.67,-15.1,65,0.40,0.0,1032.53,90.0
2019-02-18 01:30,50.630445,-96.9807616666667,9.8,14.0,332,1002.72,-15.1,65,0.40,0.0,1032.61,90.0
2019-02-18 01:40,50.630445,-96.9807616666667,9.3,12.1,337,1002.87,-15.3,66,0.40,0.0,1032.79,90.0
2019-02-18 01:50,50.630445,-96.9807616666667,10.1,13.4,333,1002.92,-15.4,66,0.41,0.0,1032.85,90.0
2019-02-18 02:00,50.630445,-96.9807616666667,11.9,16.5,340,1002.99,-15.7,66,0.41,0.0,1032.94,90.0
2019-02-18 02:10,50.6304466666667,-96.9807616666667,12.3,16.5,342,1003.03,-16.0,66,0.41,0.0,1033.02,90.0
2019-02-18 02:20,50.6304483333333,-96.9807633333333,13.3,19.2,343,1003.13,-16.2,66,0.41,0.0,1033.16,90.0
2019-02-18 02:30,50.6304666666667,-96.9807966666667,11.9,16.8,340,1003.24,-16.4,66,0.41,0.0,1033.29,90.0
2019-02-18 02:40,50.6304466666667,-96.98074,12.3,16.8,341,1003.29,-16.6,66,0.41,0.0,1033.35,90.0
2019-02-18 02:50,50.6304366666667,-96.98076,12.7,16.8,339,1003.35,-16.8,67,0.41,0.0,1033.43,90.0
2019-02-18 03:00,50.630445,-96.980765,10.8,15.8,334,1003.49,-17.1,67,0.41,0.0,1033.58,0.0
2019-02-18 03:10,50.630445,-96.980765,10.8,15.2,330,1003.57,-17.3,68,0.41,0.0,1033.68,0.0
2019-02-18 03:20,50.630445,-96.9807633333333,10.9,16.4,330,1003.66,-17.5,68,0.41,0.0,1033.80,0.0
2019-02-18 03:30,50.630445,-96.9807633333333,8.9,13.6,328,1003.74,-17.6,68,0.41,0.0,1033.89,0.0
2019-02-18 03:40,50.630445,-96.9807633333333,8.9,12.7,326,1003.79,-17.9,68,0.41,0.0,1033.96,0.0
2019-02-18 03:50,50.6304416666667,-96.98078,9.1,12.4,327,1003.83,-18.3,69,0.41,0.0,1034.05,0.0
2019-02-18 04:00,50.63046,-96.9807716666667,9.7,13.6,332,1003.90,-18.6,69,0.41,0.0,1034.15,356.8
2019-02-18 04:10,50.6304566666667,-96.98077,9.2,12.9,327,1003.95,-18.9,69,0.41,0.0,1034.24,356.8
2019-02-18 04:20,50.6304483333333,-96.9807716666667,8.8,14.2,324,1004.04,-19.1,70,0.41,0.0,1034.35,356.8
2019-02-18 04:30,50.6304483333333,-96.98076,9.1,14.0,324,1004.03,-19.2,70,0.41,0.0,1034.37,356.8
2019-02-18 04:40,50.63045,-96.9807633333333,8.3,11.2,326,1004.07,-19.4,70,0.41,0.0,1034.42,356.8
2019-02-18 04:50,50.6304533333333,-96.9807633333333,8.1,11.5,328,1004.10,-19.5,71,0.41,0.0,1034.48,356.8
2019-02-18 05:00,50.6304533333333,-96.9807616666667,7.9,11.9,321,1004.11,-19.6,71,0.40,0.0,1034.51,360.0
2019-02-18 05:10,50.6304616666667,-96.9807866666667,9.0,12.1,313,1004.17,-19.9,71,0.40,0.0,1034.60,360.0
2019-02-18 05:20,50.63046,-96.9807816666667,9.5,14.3,316,1004.29,-20.2,71,0.40,0.0,1034.75,360.0
2019-02-18 05:30,50.6304566666667,-96.98078,8.8,13.1,314,1004.39,-20.5,71,0.40,0.0,1034.89,360.0
2019-02-18 05:40,50.6304566666667,-96.98078,8.1,11.0,304,1004.57,-20.9,72,0.40,0.0,1035.13,360.0
2019-02-18 05:50,50.6304566666667,-96.98078,9.7,13.1,306,1004.58,-21.4,73,0.40,0.0,1035.18,360.0
2019-02-18 06:00,50.6304333333333,-96.9807716666667,8.8,13.1,312,1004.72,-21.7,73,0.40,0.0,1035.37,221.3
2019-02-18 06:10,50.63046,-96.9807983333333,8.1,12.0,322,1004.78,-21.8,74,0.40,0.0,1035.45,221.3
2019-02-18 06:20,50.63045,-96.9807816666667,7.3,10.6,319,1004.81,-22.0,74,0.40,0.0,1035.50,221.3
2019-02-18 06:30,50.63045,-96.9807783333333,7.4,10.9,318,1004.89,-22.2,74,0.39,0.0,1035.59,221.3
2019-02-18 06:40,50.630435,-96.9807166666667,6.8,9.9,318,1004.96,-22.2,74,0.39,0.0,1035.69,221.3
2019-02-18 06:50,50.6304633333333,-96.9807716666667,6.9,10.1,315,1005.05,-22.3,74,0.39,0.0,1035.79,221.3
2019-02-18 07:00,50.6304416666667,-96.98076,7.2,9.9,312,1005.13,-22.5,75,0.38,0.0,1035.90,176.8
2019-02-18 07:10,50.6304433333333,-96.9807616666667,6.9,10.0,315,1005.14,-22.8,75,0.38,0.0,1035.94,176.8
2019-02-18 07:20,50.6304433333333,-96.9807616666667,7.4,10.1,315,1005.14,-23.0,75,0.38,0.0,1035.98,176.8
2019-02-18 07:30,50.630445,-96.9807633333333,7.5,10.7,313,1005.20,-23.0,76,0.38,0.0,1036.06,176.8
2019-02-18 07:40,50.630445,-96.9807666666667,6.1,8.3,306,1005.33,-23.1,76,0.38,0.0,1036.24,176.8
2019-02-18 07:50,50.6304433333333,-96.9807683333333,6.1,8.3,310,1005.35,-23.2,76,0.38,0.0,1036.28,176.8
2019-02-18 08:00,50.6304283333333,-96.9807883333333,5.4,7.7,313,1005.37,-23.3,76,0.38,0.0,1036.32,219.5
2019-02-18 08:10,50.6304383333333,-96.9807766666667,5.6,8.0,313,1005.35,-23.4,77,0.38,0.0,1036.31,219.5
2019-02-18 08:20,50.6304433333333,-96.980765,6.7,10.1,307,1005.38,-23.5,77,0.37,0.0,1036.36,219.5
2019-02-18 08:30,50.630445,-96.9807633333333,7.3,12.0,313,1005.40,-23.6,77,0.37,0.0,1036.38,219.5
2019-02-18 08:40,50.6304433333333,-96.9807666666667,6.8,9.9,311,1005.48,-23.6,77,0.37,0.0,1036.48,219.5
2019-02-18 08:50,50.6304433333333,-96.980765,6.6,8.8,305,1005.58,-23.6,77,0.37,0.0,1036.60,219.5
2019-02-18 09:00,50.6304433333333,-96.9807666666667,5.6,8.1,305,1005.65,-23.6,77,0.37,0.0,1036.68,41.3
2019-02-18 09:10,50.6304433333333,-96.9807683333333,6.2,9.3,305,1005.67,-23.6,76,0.37,0.0,1036.72,41.3
2019-02-18 09:20,50.6304433333333,-96.98077,6.3,8.8,303,1005.74,-23.5,76,0.37,0.0,1036.79,41.3
2019-02-18 09:30,50.6304483333333,-96.9807933333333,5.9,9.7,314,1005.70,-23.4,76,0.37,0.0,1036.75,41.3
2019-02-18 09:40,50.6304383333333,-96.9807733333333,4.6,6.4,315,1005.70,-23.3,77,0.37,0.0,1036.75,41.3
2019-02-18 09:50,50.6304416666667,-96.980775,5.2,7.1,312,1005.68,-23.2,77,0.36,0.0,1036.72,41.3
2019-02-18 10:00,50.6304383333333,-96.9807716666667,5.0,7.0,309,1005.56,-23.1,76,0.36,0.0,1036.60,270.0
2019-02-18 10:10,50.6304416666667,-96.9807716666667,5.7,7.6,312,1005.59,-23.1,76,0.36,0.0,1036.63,270.0
2019-02-18 10:20,50.6304416666667,-96.9807733333333,5.6,8.5,302,1005.60,-23.1,76,0.36,0.0,1036.65,270.0
2019-02-18 10:30,50.63044,-96.9807716666667,5.6,8.7,300,1005.70,-23.1,76,0.36,0.0,1036.76,270.0
2019-02-18 10:40,50.6304383333333,-96.9807716666667,6.2,8.6,299,1005.67,-23.2,76,0.35,0.0,1036.73,270.0
2019-02-18 10:50,50.6304333333333,-96.98077,5.5,8.8,295,1005.66,-23.3,75,0.35,0.0,1036.72,270.0
2019-02-18 11:00,50.6304366666667,-96.9807633333333,4.8,8.3,294,1005.73,-23.5,76,0.35,0.0,1036.81,57.7
2019-02-18 11:10,50.6304333333333,-96.9807783333333,4.7,6.9,293,1005.78,-23.6,76,0.34,0.0,1036.87,57.7
2019-02-18 11:20,50.6304366666667,-96.980785,4.5,6.9,288,1005.88,-23.7,76,0.34,0.0,1036.96,57.7
2019-02-18 11:30,50.630435,-96.9807866666667,4.1,6.7,287,1005.87,-23.7,76,0.34,0.0,1036.95,57.7
2019-02-18 11:40,50.63041,-96.98073,4.0,6.1,288,1005.86,-23.7,76,0.34,0.0,1036.93,57.7
2019-02-18 11:50,50.6304383333333,-96.9807683333333,4.1,5.9,299,1005.83,-23.6,76,0.34,0.0,1036.90,57.7
2019-02-18 12:00,50.6304416666667,-96.9807733333333,5.0,7.6,300,1005.82,-23.6,76,0.34,0.0,1036.88,270.0
2019-02-18 12:10,50.63044,-96.9807733333333,4.8,7.0,293,1005.92,-23.6,76,0.34,0.0,1036.98,270.0
2019-02-18 12:20,50.63044,-96.9807733333333,5.0,7.2,295,1005.97,-23.6,76,0.34,0.0,1037.03,270.0
2019-02-18 12:30,50.6304416666667,-96.980775,4.5,7.4,302,1006.06,-23.6,76,0.33,0.0,1037.13,270.0
2019-02-18 12:40,50.6304416666667,-96.9807733333333,5.3,7.3,301,1006.09,-23.6,76,0.33,0.0,1037.17,270.0
2019-02-18 12:50,50.6304416666667,-96.980775,4.5,6.2,298,1006.13,-23.7,76,0.33,0.0,1037.22,270.0
2019-02-18 13:00,50.6304433333333,-96.9807833333333,3.8,5.2,295,1006.21,-23.7,75,0.33,0.0,1037.32,270.0
2019-02-18 13:10,50.6304533333333,-96.9807716666667,4.3,7.0,292,1006.34,-23.7,75,0.33,0.0,1037.46,270.0
2019-02-18 13:20,50.63045,-96.9807733333333,4.6,6.2,304,1006.38,-23.8,75,0.33,0.0,1037.51,270.0
2019-02-18 13:30,50.6304466666667,-96.9807733333333,4.3,5.6,310,1006.38,-23.9,75,0.33,0.0,1037.51,270.0
2019-02-18 13:40,50.6304583333333,-96.9807583333333,3.8,6.4,301,1006.54,-24.0,75,0.33,0.0,1037.68,270.0
2019-02-18 13:50,50.6304566666667,-96.9807566666667,4.2,6.3,311,1006.49,-24.0,75,0.33,0.0,1037.63,270.0
2019-02-18 14:00,50.6304566666667,-96.9807583333333,2.9,3.8,314,1006.55,-24.1,75,0.33,0.0,1037.69,23.5
2019-02-18 14:10,50.6304583333333,-96.9807666666667,2.6,4.2,310,1006.61,-24.0,75,0.33,0.0,1037.75,23.5
2019-02-18 14:20,50.6304483333333,-96.9807516666667,3.3,4.9,304,1006.76,-23.8,74,0.33,0.0,1037.89,23.5
2019-02-18 14:30,50.6304533333333,-96.9807516666667,3.6,6.1,307,1006.87,-23.6,73,0.33,0.0,1037.99,23.5
2019-02-18 14:40,50.6304516666667,-96.980755,4.4,6.9,323,1006.94,-23.4,72,0.33,0.0,1038.06,23.5
2019-02-18 14:50,50.630455,-96.9807566666667,3.3,4.9,319,1007.11,-23.2,72,0.32,0.0,1038.22,23.5
2019-02-18 15:00,50.630455,-96.98076,4.4,6.4,330,1007.17,-23.0,72,0.33,0.0,1038.27,36.6
2019-02-18 15:10,50.63047,-96.98076,4.7,6.9,333,1007.14,-22.8,72,0.33,0.0,1038.24,36.6
2019-02-18 15:20,50.63046,-96.98076,4.9,7.0,330,1007.22,-22.5,70,0.33,0.0,1038.31,36.6
2019-02-18 15:30,50.6304566666667,-96.9807583333333,3.9,6.9,322,1007.34,-22.2,69,0.32,0.0,1038.42,36.6
2019-02-18 15:40,50.6304583333333,-96.9807616666667,5.1,7.0,328,1007.37,-22.2,70,0.32,0.0,1038.45,36.6
2019-02-18 15:50,50.6304583333333,-96.980765,4.7,6.7,320,1007.42,-21.9,70,0.32,0.0,1038.48,36.6
2019-02-18 16:00,50.6304583333333,-96.9807683333333,3.4,5.9,324,1007.46,-21.6,68,0.32,0.0,1038.50,31.1
2019-02-18 16:10,50.63046,-96.98077,3.0,4.8,305,1007.50,-21.3,67,0.33,0.0,1038.52,31.1
2019-02-18 16:20,50.630415,-96.9807366666667,3.4,5.4,303,1007.59,-21.2,66,0.33,0.0,1038.58,31.1
2019-02-18 16:30,50.6304333333333,-96.9807616666667,2.9,4.8,323,1007.60,-20.7,65,0.33,0.0,1038.55,31.1
2019-02-18 16:40,50.6304566666667,-96.9807816666667,3.3,5.1,308,1007.63,-20.2,63,0.33,0.0,1038.54,31.1
2019-02-18 16:50,50.630435,-96.9807716666667,3.6,5.6,5,1007.67,-20.2,64,0.33,0.0,1038.56,31.1
2019-02-18 17:00,50.630425,-96.98078,3.3,4.7,38,1007.69,-20.5,67,0.33,0.0,1038.60,220.3
2019-02-18 17:10,50.6304266666667,-96.9807816666667,2.6,3.6,43,1007.74,-20.6,67,0.33,0.0,1038.63,220.3
2019-02-18 17:20,50.63043,-96.9807783333333,2.2,3.2,46,1007.74,-20.5,67,0.33,0.0,1038.61,220.3
2019-02-18 17:30,50.63045,-96.9808133333333,2.4,3.3,41,1007.77,-20.0,65,0.33,0.0,1038.60,220.3
2019-02-18 17:40,50.6304483333333,-96.9807733333333,2.9,4.0,57,1007.75,-18.9,63,0.33,0.0,1038.50,220.3
2019-02-18 17:50,50.6304383333333,-96.980775,3.1,3.9,50,1007.72,-18.9,63,0.33,0.0,1038.45,220.3
2019-02-18 18:00,50.6304466666667,-96.9807766666667,3.7,4.8,38,1007.71,-19.3,64,0.33,0.0,1038.44,240.8
2019-02-18 18:10,50.63045,-96.980775,3.7,4.5,34,1007.73,-19.0,64,0.34,0.0,1038.44,240.8
2019-02-18 18:20,50.6304466666667,-96.9807783333333,2.7,3.8,38,1007.73,-18.5,63,0.34,0.0,1038.38,240.8
2019-02-18 18:30,50.6304466666667,-96.9807816666667,2.4,3.5,74,1007.72,-17.4,60,0.34,0.0,1038.27,240.8
2019-02-18 18:40,50.6304483333333,-96.98078,2.4,3.7,85,1007.64,-16.0,55,0.34,0.0,1038.11,240.8
2019-02-18 18:50,50.6304483333333,-96.9807783333333,2.6,3.8,94,1007.62,-15.4,54,0.34,0.0,1038.07,240.8
2019-02-18 19:00,50.6304616666667,-96.980775,3.0,3.9,96,1007.56,-16.6,57,0.34,0.0,1038.08,347.4
2019-02-18 19:10,50.63045,-96.9807633333333,2.9,3.8,89,1007.54,-16.5,56,0.34,0.0,1038.05,347.4
2019-02-18 19:20,50.63045,-96.9807616666667,4.1,5.6,73,1007.47,-16.6,56,0.34,0.0,1037.95,347.4
2019-02-18 19:30,50.6304516666667,-96.980765,4.6,5.4,72,1007.36,-17.4,60,0.34,0.0,1037.82,347.4
2019-02-18 19:40,50.6304316666667,-96.9807483333333,3.8,4.9,79,1007.33,-16.9,58,0.34,0.0,1037.76,347.4
2019-02-18 19:50,50.6304416666667,-96.9807633333333,3.2,4.8,88,1007.32,-15.9,56,0.34,0.0,1037.71,347.4
2019-02-18 20:00,50.630425,-96.9807616666667,2.9,3.9,80,1007.30,-15.5,55,0.35,0.0,1037.66,90.0
2019-02-18 20:10,50.6304433333333,-96.9807533333333,2.6,3.2,95,1007.28,-14.6,52,0.35,0.0,1037.54,90.0
2019-02-18 20:20,50.6304433333333,-96.9807533333333,3.0,3.7,107,1007.26,-15.3,55,0.35,0.0,1037.51,90.0
2019-02-18 20:30,50.630445,-96.9807583333333,3.2,4.3,115,1007.18,-16.7,60,0.35,0.0,1037.43,90.0
2019-02-18 20:40,50.6304433333333,-96.98076,3.1,4.3,117,1007.13,-17.2,61,0.35,0.0,1037.37,90.0
2019-02-18 20:50,50.6304416666667,-96.98076,3.0,3.6,115,1007.06,-16.8,60,0.35,0.0,1037.34,90.0
2019-02-18 21:00,50.6304433333333,-96.9807633333333,3.2,4.2,114,1007.00,-16.8,60,0.35,0.0,1037.27,167.4
2019-02-18 21:10,50.630445,-96.9807633333333,2.8,3.8,121,1007.02,-17.2,61,0.36,0.0,1037.32,167.4
2019-02-18 21:20,50.630445,-96.9807633333333,2.4,3.0,104,1006.99,-16.5,60,0.36,0.0,1037.30,167.4
2019-02-18 21:30,50.6304266666667,-96.98076,2.5,5.0,123,1007.00,-16.2,59,0.36,0.0,1037.26,167.4
2019-02-18 21:40,50.6304383333333,-96.9807666666667,4.5,5.3,142,1006.93,-18.2,64,0.36,0.0,1037.25,167.4
2019-02-18 21:50,50.6304383333333,-96.98077,4.3,5.1,142,1006.83,-18.6,66,0.36,0.0,1037.15,167.4
2019-02-18 22:00,50.63044,-96.980775,4.9,5.9,143,1006.78,-18.8,67,0.36,0.0,1037.05,360.0
2019-02-18 22:10,50.6304383333333,-96.980775,5.6,6.4,146,1006.68,-19.1,69,0.36,0.0,1037.01,360.0
2019-02-18 22:20,50.63044,-96.9807716666667,4.7,5.3,139,1006.67,-19.1,67,0.37,0.0,1037.08,360.0
2019-02-18 22:30,50.63044,-96.9807733333333,4.2,5.1,131,1006.63,-18.5,63,0.37,0.0,1037.04,360.0
2019-02-18 22:40,50.6304316666667,-96.98082,4.0,5.4,134,1006.55,-18.4,62,0.37,0.0,1036.92,360.0
2019-02-18 22:50,50.6304316666667,-96.98078,4.3,4.8,145,1006.49,-19.1,63,0.37,0.0,1036.90,360.0
2019-02-18 23:00,50.630435,-96.98078,5.3,5.8,154,1006.41,-19.5,68,0.37,0.0,1036.87,299.2
2019-02-18 23:10,50.6304383333333,-96.9807783333333,6.7,7.3,157,1006.37,-19.9,71,0.37,0.0,1036.81,299.2
2019-02-18 23:20,50.63044,-96.9807783333333,6.5,7.2,161,1006.29,-20.3,72,0.37,0.0,1036.73,299.2
2019-02-18 23:30,50.6304483333333,-96.9807816666667,5.8,6.5,171,1006.21,-20.0,70,0.37,0.0,1036.75,299.2
2019-02-18 23:40,50.63045,-96.98078,5.7,6.5,181,1006.11,-20.1,69,0.38,0.0,1036.68,299.2
